Tracking 29892 objects as of 21-Nov-2024
HD Live streaming from Space Station
objects crossing your sky now

ONEWEB-0461

Track ONEWEB-0461 now!
10-day predictions
ONEWEB-0461 is classified as:


NORAD ID: 51649
Int'l Code: 2022-012AD
Perigee: 1,199.8 km
Apogee: 1,202.0 km
Inclination: 87.9 °
Period: 109.3 minutes
Semi major axis: 7571 km
RCS: Unknown
Launch date: February 10, 2022
Source: United Kingdom (UK)
Launch site: FRENCH GUIANA (FRGUI)
Your satellite tracking list
Your tracking list is empty




NASA's NSSDC Master Catalog

Two Line Element Set (TLE):
1 51649U 22012AD  24325.83507782 -.00000020  00000-0 -83811-4 0  9997
2 51649  87.9071 120.0734 0001492  97.4196 262.7105 13.17641100138388
Source of the keplerian elements: AFSPC